Time,TemperatureF,DewpointF,PressureIn,WindDirection,WindDirectionDegrees,WindSpeedMPH,WindSpeedGustMPH,Humidity,HourlyPrecipIn,Conditions,Clouds,dailyrainin,SolarRadiationWatts/m^2,SoftwareType,DateUTC
2013-09-21 00:01:00,47.0,45.0,-100.00,SSE,148,4.0,13.0,91,0.00,,,0.02,0.000000,,2013-09-21 07:01:00,
2013-09-21 00:11:00,47.0,45.0,-100.00,SSE,148,4.0,13.0,91,0.00,,,0.02,0.000000,,2013-09-21 07:11:00,
2013-09-21 00:42:00,46.0,42.0,-100.00,SSW,195,3.0,9.0,85,0.00,,,0.02,0.000000,,2013-09-21 07:42:00,
2013-09-21 00:52:00,46.0,42.0,-100.00,SSW,195,3.0,9.0,85,0.00,,,0.02,0.000000,,2013-09-21 07:52:00,
2013-09-21 01:03:00,46.0,42.0,-100.00,SSW,195,3.0,9.0,85,0.00,,,0.02,0.000000,,2013-09-21 08:03:00,
2013-09-21 01:12:00,46.0,42.0,-100.00,SSW,195,3.0,9.0,85,0.00,,,0.02,0.000000,,2013-09-21 08:12:00,
2013-09-21 01:42:00,46.0,41.0,-100.00,SW,216,3.0,8.0,81,0.00,,,0.02,0.000000,,2013-09-21 08:42:00,
2013-09-21 01:52:00,46.0,41.0,-100.00,SW,216,3.0,8.0,81,0.00,,,0.02,0.000000,,2013-09-21 08:52:00,
2013-09-21 02:01:00,46.0,41.0,-100.00,SW,216,3.0,8.0,81,0.00,,,0.02,0.000000,,2013-09-21 09:01:00,
2013-09-21 02:11:00,46.0,41.0,-100.00,SW,216,3.0,8.0,81,0.00,,,0.02,0.000000,,2013-09-21 09:11:00,
2013-09-21 02:43:00,44.0,40.0,-100.00,SE,137,3.0,6.0,85,0.00,,,0.02,0.000000,,2013-09-21 09:43:00,
2013-09-21 02:54:00,44.0,40.0,-100.00,SE,137,3.0,6.0,85,0.00,,,0.02,0.000000,,2013-09-21 09:54:00,
2013-09-21 03:03:00,44.0,40.0,-100.00,SE,137,3.0,6.0,85,0.00,,,0.02,0.000000,,2013-09-21 10:03:00,
2013-09-21 03:12:00,44.0,40.0,-100.00,SE,137,3.0,6.0,85,0.00,,,0.02,0.000000,,2013-09-21 10:12:00,
2013-09-21 03:42:00,43.0,37.0,-100.00,South,185,4.0,8.0,80,0.00,,,0.02,0.000000,,2013-09-21 10:42:00,
2013-09-21 03:52:00,43.0,37.0,-100.00,South,185,4.0,8.0,80,0.00,,,0.02,0.000000,,2013-09-21 10:52:00,
2013-09-21 04:02:00,43.0,37.0,-100.00,South,185,4.0,8.0,80,0.00,,,0.02,0.000000,,2013-09-21 11:02:00,
2013-09-21 04:11:00,43.0,37.0,-100.00,South,185,4.0,8.0,80,0.00,,,0.02,0.000000,,2013-09-21 11:11:00,
2013-09-21 04:42:00,44.0,38.0,-100.00,SSW,198,5.0,11.0,79,0.00,,,0.02,0.000000,,2013-09-21 11:42:00,
2013-09-21 04:52:00,44.0,38.0,-100.00,SSW,198,5.0,11.0,79,0.00,,,0.02,0.000000,,2013-09-21 11:52:00,
2013-09-21 05:02:00,44.0,38.0,-100.00,SSW,198,5.0,11.0,79,0.00,,,0.02,0.000000,,2013-09-21 12:02:00,
2013-09-21 05:12:00,44.0,38.0,-100.00,SSW,198,5.0,11.0,79,0.00,,,0.02,0.000000,,2013-09-21 12:12:00,
2013-09-21 05:42:00,44.0,38.0,-100.00,South,191,4.0,11.0,80,0.00,,,0.02,0.000000,,2013-09-21 12:42:00,
2013-09-21 05:52:00,44.0,38.0,-100.00,South,191,4.0,11.0,80,0.00,,,0.02,0.000000,,2013-09-21 12:52:00,
2013-09-21 06:02:00,44.0,38.0,-100.00,South,191,4.0,11.0,80,0.00,,,0.02,0.000000,,2013-09-21 13:02:00,
2013-09-21 06:11:00,44.0,38.0,-100.00,South,191,4.0,11.0,80,0.00,,,0.02,0.000000,,2013-09-21 13:11:00,
2013-09-21 06:42:00,42.0,38.0,-100.00,West,274,2.0,7.0,86,0.00,,,0.02,0.000000,,2013-09-21 13:42:00,
2013-09-21 06:52:00,42.0,38.0,-100.00,West,274,2.0,7.0,86,0.00,,,0.02,0.000000,,2013-09-21 13:52:00,
2013-09-21 07:02:00,42.0,38.0,-100.00,West,274,2.0,7.0,86,0.00,,,0.02,0.000000,,2013-09-21 14:02:00,
2013-09-21 07:11:00,42.0,38.0,-100.00,West,274,2.0,7.0,86,0.00,,,0.02,0.000000,,2013-09-21 14:11:00,
2013-09-21 07:42:00,42.0,37.0,-100.00,WSW,237,5.0,9.0,83,0.00,,,0.02,2.000000,,2013-09-21 14:42:00,
2013-09-21 07:52:00,42.0,37.0,-100.00,WSW,237,5.0,9.0,83,0.00,,,0.02,2.000000,,2013-09-21 14:52:00,
2013-09-21 08:01:00,42.0,37.0,-100.00,WSW,237,5.0,9.0,83,0.00,,,0.02,2.000000,,2013-09-21 15:01:00,
2013-09-21 08:12:00,42.0,37.0,-100.00,WSW,237,5.0,9.0,83,0.00,,,0.02,2.000000,,2013-09-21 15:12:00,
2013-09-21 08:14:00,44.0,39.0,-100.00,SW,235,4.0,10.0,81,0.00,,,-99.99,46.000000,,2013-09-21 15:14:00,
2013-09-21 08:45:00,44.0,39.0,-100.00,SW,235,4.0,10.0,81,0.00,,,-99.99,46.000000,,2013-09-21 15:45:00,
2013-09-21 08:55:00,44.0,39.0,-100.00,SW,235,4.0,10.0,81,0.00,,,-99.99,46.000000,,2013-09-21 15:55:00,
2013-09-21 09:05:00,44.0,39.0,-100.00,SW,235,4.0,10.0,81,0.00,,,-99.99,46.000000,,2013-09-21 16:05:00,
2013-09-21 09:43:00,50.0,41.0,-100.00,South,186,4.0,9.0,70,0.00,,,0.02,137.000000,,2013-09-21 16:43:00,
2013-09-21 09:54:00,50.0,41.0,-100.00,South,186,4.0,9.0,70,0.00,,,0.02,137.000000,,2013-09-21 16:54:00,
2013-09-21 10:03:00,50.0,41.0,-100.00,South,186,4.0,9.0,70,0.00,,,0.02,137.000000,,2013-09-21 17:03:00,
2013-09-21 10:12:00,50.0,41.0,-100.00,South,186,4.0,9.0,70,0.00,,,0.02,137.000000,,2013-09-21 17:12:00,
2013-09-21 10:43:00,55.0,41.0,-100.00,SSW,193,6.0,14.0,59,0.01,,,0.03,332.000000,,2013-09-21 17:43:00,
2013-09-21 10:52:00,55.0,41.0,-100.00,SSW,193,6.0,14.0,59,0.01,,,0.03,332.000000,,2013-09-21 17:52:00,
2013-09-21 11:02:00,55.0,41.0,-100.00,SSW,193,6.0,14.0,59,0.01,,,0.03,332.000000,,2013-09-21 18:02:00,
2013-09-21 11:12:00,55.0,41.0,-100.00,SSW,193,6.0,14.0,59,0.01,,,0.03,332.000000,,2013-09-21 18:12:00,
2013-09-21 12:11:00,62.0,41.0,-100.00,South,177,6.0,14.0,46,0.00,,,0.03,671.000000,,2013-09-21 19:11:00,
2013-09-21 12:42:00,61.0,37.0,-100.00,SSE,154,7.0,16.0,41,0.00,,,0.03,438.000000,,2013-09-21 19:42:00,
2013-09-21 12:52:00,61.0,37.0,-100.00,SSE,154,7.0,16.0,41,0.00,,,0.03,438.000000,,2013-09-21 19:52:00,
2013-09-21 13:02:00,61.0,37.0,-100.00,SSE,154,7.0,16.0,41,0.00,,,0.03,438.000000,,2013-09-21 20:02:00,
2013-09-21 13:12:00,61.0,37.0,-100.00,SSE,154,7.0,16.0,41,0.00,,,0.03,438.000000,,2013-09-21 20:12:00,
2013-09-21 13:42:00,62.0,38.0,-100.00,SSW,203,6.0,18.0,41,0.00,,,0.03,464.000000,,2013-09-21 20:42:00,
2013-09-21 13:52:00,62.0,38.0,-100.00,SSW,203,6.0,18.0,41,0.00,,,0.03,464.000000,,2013-09-21 20:52:00,
2013-09-21 14:02:00,62.0,38.0,-100.00,SSW,203,6.0,18.0,41,0.00,,,0.03,464.000000,,2013-09-21 21:02:00,
2013-09-21 14:11:00,62.0,38.0,-100.00,SSW,203,6.0,18.0,41,0.00,,,0.03,464.000000,,2013-09-21 21:11:00,
2013-09-21 14:45:00,60.0,41.0,-100.00,WSW,251,9.0,18.0,50,0.00,,,0.03,455.000000,,2013-09-21 21:45:00,
2013-09-21 14:54:00,60.0,41.0,-100.00,WSW,251,9.0,18.0,50,0.00,,,0.03,455.000000,,2013-09-21 21:54:00,
2013-09-21 15:05:00,60.0,41.0,-100.00,WSW,251,9.0,18.0,50,0.00,,,0.03,455.000000,,2013-09-21 22:05:00,
2013-09-21 15:13:00,60.0,41.0,-100.00,WSW,251,9.0,18.0,50,0.00,,,0.03,455.000000,,2013-09-21 22:13:00,
2013-09-21 15:43:00,58.0,39.0,-100.00,SSW,210,6.0,15.0,50,0.00,,,0.03,230.000000,,2013-09-21 22:43:00,
2013-09-21 15:53:00,58.0,39.0,-100.00,SSW,210,6.0,15.0,50,0.00,,,0.03,230.000000,,2013-09-21 22:53:00,
2013-09-21 16:03:00,58.0,39.0,-100.00,SSW,210,6.0,15.0,50,0.00,,,0.03,230.000000,,2013-09-21 23:03:00,
2013-09-21 16:12:00,58.0,39.0,-100.00,SSW,210,6.0,15.0,50,0.00,,,0.03,230.000000,,2013-09-21 23:12:00,
2013-09-21 16:42:00,59.0,40.0,-100.00,SW,219,6.0,12.0,50,0.00,,,0.03,296.000000,,2013-09-21 23:42:00,
2013-09-21 16:52:00,59.0,40.0,-100.00,SW,219,6.0,12.0,50,0.00,,,0.03,296.000000,,2013-09-21 23:52:00,
2013-09-21 17:02:00,59.0,40.0,-100.00,SW,219,6.0,12.0,50,0.00,,,0.03,296.000000,,2013-09-22 00:02:00,
2013-09-21 17:12:00,59.0,40.0,-100.00,SW,219,6.0,12.0,50,0.00,,,0.03,296.000000,,2013-09-22 00:12:00,
2013-09-21 17:43:00,58.0,39.0,-100.00,West,270,10.0,17.0,50,0.00,,,0.03,432.000000,,2013-09-22 00:43:00,
2013-09-21 17:52:00,58.0,39.0,-100.00,West,270,10.0,17.0,50,0.00,,,0.03,432.000000,,2013-09-22 00:52:00,
2013-09-21 18:02:00,58.0,39.0,-100.00,West,270,10.0,17.0,50,0.00,,,0.03,432.000000,,2013-09-22 01:02:00,
2013-09-21 18:11:00,58.0,39.0,-100.00,West,270,10.0,17.0,50,0.00,,,0.03,432.000000,,2013-09-22 01:11:00,
2013-09-21 18:42:00,55.0,39.0,-100.00,SW,235,5.0,11.0,54,0.00,,,0.03,90.000000,,2013-09-22 01:42:00,
2013-09-21 18:52:00,55.0,39.0,-100.00,SW,235,5.0,11.0,54,0.00,,,0.03,90.000000,,2013-09-22 01:52:00,
2013-09-21 19:02:00,55.0,39.0,-100.00,SW,235,5.0,11.0,54,0.00,,,0.03,90.000000,,2013-09-22 02:02:00,
2013-09-21 19:11:00,55.0,39.0,-100.00,SW,235,5.0,11.0,54,0.00,,,0.03,90.000000,,2013-09-22 02:11:00,
2013-09-21 19:42:00,53.0,38.0,-100.00,SSW,200,2.0,15.0,57,0.00,,,0.03,33.000000,,2013-09-22 02:42:00,
2013-09-21 19:52:00,53.0,38.0,-100.00,SSW,200,2.0,15.0,57,0.00,,,0.03,33.000000,,2013-09-22 02:52:00,
2013-09-21 20:02:00,53.0,38.0,-100.00,SSW,200,2.0,15.0,57,0.00,,,0.03,33.000000,,2013-09-22 03:02:00,
2013-09-21 20:12:00,53.0,38.0,-100.00,SSW,200,2.0,15.0,57,0.00,,,0.03,33.000000,,2013-09-22 03:12:00,
2013-09-21 20:14:00,50.0,42.0,-100.00,ENE,76,5.0,11.0,75,0.00,,,0.03,0.000000,,2013-09-22 03:14:00,
2013-09-21 20:45:00,50.0,42.0,-100.00,ENE,76,5.0,11.0,75,0.00,,,0.03,0.000000,,2013-09-22 03:45:00,
2013-09-21 20:54:00,50.0,42.0,-100.00,ENE,76,5.0,11.0,75,0.00,,,0.03,0.000000,,2013-09-22 03:54:00,
2013-09-21 21:02:00,-999.0,-99.9,-100.00,ENE,76,5.0,11.0,-999,-99.99,,,-99.99,0.000000,,2013-09-22 04:02:00,
2013-09-21 21:44:00,45.0,42.0,-100.00,West,276,2.0,9.0,89,0.00,,,0.03,0.000000,,2013-09-22 04:44:00,
2013-09-21 21:54:00,45.0,42.0,-100.00,West,276,2.0,9.0,89,0.00,,,0.03,0.000000,,2013-09-22 04:54:00,
2013-09-21 22:03:00,45.0,42.0,-100.00,West,276,2.0,9.0,89,0.00,,,0.03,0.000000,,2013-09-22 05:03:00,
2013-09-21 22:13:00,45.0,42.0,-100.00,West,276,2.0,9.0,89,0.00,,,0.03,0.000000,,2013-09-22 05:13:00,
2013-09-21 22:43:00,41.0,39.0,-100.00,SW,221,2.0,4.0,91,0.00,,,0.01,0.000000,,2013-09-22 05:43:00,
2013-09-21 22:53:00,41.0,39.0,-100.00,SW,221,2.0,4.0,91,0.00,,,0.01,0.000000,,2013-09-22 05:53:00,
2013-09-21 23:02:00,41.0,39.0,-100.00,SW,221,2.0,4.0,91,0.00,,,0.01,0.000000,,2013-09-22 06:02:00,
2013-09-21 23:12:00,41.0,39.0,-100.00,SW,221,2.0,4.0,91,0.00,,,0.01,0.000000,,2013-09-22 06:12:00,
2013-09-21 23:42:00,41.0,37.0,-100.00,SSW,199,3.0,7.0,85,0.00,,,0.01,0.000000,,2013-09-22 06:42:00,
2013-09-21 23:52:00,41.0,37.0,-100.00,SSW,199,3.0,7.0,85,0.00,,,0.01,0.000000,,2013-09-22 06:52:00,